Left ArrowRight Arrow

39.14045, -121.61691

Hourly Observations for June 17, 2024

Temp ( °F °C ) Dew Point ( °F °C ) Humidity (%) Winds ( mph kmh ) Pressure ( in mb ) Visibility ( mi km ) Precip ( " mm )
12:53 am 00:53 Clear 71 21.7 45 7.2 39 39 NNW 7 11 29.78 1009 10 16 0.00 0.00
1:53 am 01:53 Clear 69 20.6 46 7.8 44 44 NNW 9 15 29.79 1009 10 16 0.00 0.00
2:53 am 02:53 Clear 68 20 38 3.3 33 33 NNW 12 19 29.80 1009 10 16 0.00 0.00
3:53 am 03:53 Clear 66 18.9 37 2.8 34 34 NNW 13 20 29.80 1009 10 16 0.00 0.00
4:53 am 04:53 Clear 64 17.8 36 2.2 35 35 NNW 14 22 29.83 1010 10 16 0.00 0.00
5:53 am 05:53 Sunny 61 16.1 36 2.2 39 39 NNW 8 13 29.84 1011 10 16 0.00 0.00
6:53 am 06:53 Sunny 63 17.2 37 2.8 38 38 NNW 13 20 29.86 1011 10 16 0.00 0.00
7:53 am 07:53 Sunny 66 18.9 36 2.2 33 33 NNW 17 28 29.89 1012 10 16 0.00 0.00
8:53 am 08:53 Sunny 69 20.6 36 2.2 30 30 NNW 22 35 29.90 1012 10 16 0.00 0.00
9:53 am 09:53 Sunny 72 22.2 37 2.8 28 28 NNW 18 30 29.91 1013 10 16 0.00 0.00
10:53 am 10:53 Sunny 74 23.3 36 2.2 25 25 NNW 21 33 29.90 1013 10 16 0.00 0.00
11:53 am 11:53 Sunny 78 25.6 36 2.2 22 22 NW 20 31 29.90 1013 10 16 0.00 0.00
12:53 pm 12:53 Sunny 80 26.7 35 1.7 20 20 NW 18 30 29.89 1012 10 16 0.00 0.00
1:53 pm 13:53 Sunny 83 28.3 34 1.1 17 17 NNW 17 28 29.88 1012 10 16 0.00 0.00
2:53 pm 14:53 Sunny 83 28.3 32 0 16 16 NNW 18 30 29.87 1011 10 16 0.00 0.00
3:53 pm 15:53 Sunny 85 29.4 31 -0.6 14 14 NNW 22 35 29.85 1011 10 16 0.00 0.00
4:53 pm 16:53 Sunny 84 28.9 33 0.6 16 16 NNW 20 31 29.83 1010 10 16 0.00 0.00
5:53 pm 17:53 Sunny 83 28.3 32 0 16 16 NNW 17 28 29.82 1010 10 16 0.00 0.00
6:53 pm 18:53 Sunny 82 27.8 30 -1.1 15 15 NNW 15 24 29.81 1010 10 16 0.00 0.00
7:53 pm 19:53 Sunny 79 26.1 35 1.7 20 20 NNW 13 20 29.80 1009 10 16 0.00 0.00
8:53 pm 20:53 Clear 76 24.4 34 1.1 22 22 NNW 12 19 29.79 1009 10 16 0.00 0.00
9:53 pm 21:53 Clear 74 23.3 35 1.7 24 24 NNW 12 19 29.80 1009 10 16 0.00 0.00
10:53 pm 22:53 Clear 71 21.7 37 2.8 29 29 NNW 9 15 29.79 1009 10 16 0.00 0.00
11:53 pm 23:53 Clear 70 21.1 36 2.2 29 29 NNW 9 15 29.79 1009 10 16 0.00 0.00

Powered by Vaisala Xweather